• Join FlightAware (Why Join?)
  • Login
  • US Flag 
05:06PM EST


 

Airport Tracker/Info


-or-


 

Live Flight TrackerFlight Track Log ✈ TAM3774 ✈ 23-Oct-2013 ✈ SBSP / CGH - SBCG / CGR

Flight Track Log - Related Links

Times and Time Zones

All times are in EDT time to prevent confusion due to time zone crossing. See the TAM3774 flight status page for this flight to view local times or setup timezone preferences in your user account.

Time Position Orientation Groundspeed Altitude Reporting Facility
EDT Latitude Longitude Course Direction KTS MPH feet Rate Location/Type
07:02PM -23.6320 -46.6530 143° Southeast  Level FlightAware
07:03PM -23.6150 -46.6650 327° Northwest 145 167 3,100 4,393 Climbing FlightAware
07:03PM -23.6030 -46.6840 305° West 153 176 4,100 1,627 Climbing FlightAware
07:04PM -23.6120 -46.7100 249° West 210 242 4,700 1,277 Climbing FlightAware
07:04PM -23.6180 -46.7260 248° West 232 267 5,100 1,784 Climbing FlightAware
07:04PM -23.6290 -46.7510 244° Southwest 258 297 5,800 2,000 Climbing FlightAware
07:05PM -23.6430 -46.7810 243° Southwest 289 333 6,600 2,681 Climbing FlightAware
07:05PM -23.6560 -46.8100 244° Southwest 290 334 7,900 3,714 Climbing FlightAware
07:05PM -23.6650 -46.8390 251° West 292 336 9,200 3,214 Climbing FlightAware
07:06PM -23.6510 -46.8920 286° West 310 357 10,900 2,438 Climbing FlightAware
07:06PM -23.6380 -46.9360 288° West 337 388 11,800 3,158 Climbing FlightAware
07:07PM -23.6310 -46.9820 279° West 317 365 13,900 3,429 Climbing FlightAware
07:08PM -23.6280 -47.0720 272° West 326 375 16,600 2,579 Climbing FlightAware
07:09PM -23.6210 -47.1600 275° West 350 403 18,500 2,188 Climbing FlightAware
07:09PM -23.6140 -47.2390 276° West 359 413 20,100 2,514 Climbing FlightAware
07:10PM -23.6070 -47.3480 274° West 342 394 22,900 2,400 Climbing FlightAware
07:11PM -23.6030 -47.4240 273° West 344 396 24,300 1,606 Climbing FlightAware
07:12PM -23.5980 -47.4630 278° West 354 407 24,800 1,038 Climbing FlightAware
07:12PM -23.5810 -47.5120 291° West 370 426 25,200 1,280 Climbing FlightAware
07:13PM -23.5420 -47.5990 296° West 390 449 26,400 1,714 Climbing FlightAware
07:14PM -23.4840 -47.6820 307° West 378 435 28,200 1,514 Climbing FlightAware
07:15PM -23.4140 -47.7580 315° West 403 464 29,200 1,067 Climbing FlightAware
07:15PM -23.3560 -47.7890 334° Northwest 411 473 29,800 1,043 Climbing FlightAware
07:16PM -23.2940 -47.8220 334° Northwest 414 476 30,400 1,377 Climbing FlightAware
07:16PM -23.2570 -47.8570 319° Northwest 401 461 31,200 1,350 Climbing FlightAware
07:17PM -23.2440 -47.8810 301° West 399 459 31,300 462 Climbing FlightAware
07:17PM -23.2180 -47.9720 287° West 414 476 31,700 1,297 Climbing FlightAware
07:18PM -23.1830 -48.0990 287° West 409 471 33,700 1,568 Climbing FlightAware
07:19PM -23.1670 -48.1540 288° West 406 467 34,000 205 Climbing FlightAware
07:20PM -23.1330 -48.2710 288° West 406 467 34,000  Level FlightAware
07:21PM -23.1010 -48.3760 288° West 410 472 34,000  Level FlightAware
07:22PM -23.0730 -48.4750 287° West 410 472 34,000  Level FlightAware
07:22PM -23.0450 -48.5700 288° West 405 466 34,000 -59 Level FlightAware
07:23PM -23.0140 -48.6730 288° West 410 472 33,900  Descending FlightAware
07:24PM -22.9980 -48.7270 288° West 413 475 34,000 87 Climbing FlightAware
07:24PM -22.9740 -48.8090 288° West 419 482 34,000  Level FlightAware
07:25PM -22.9420 -48.9160 288° West 419 482 34,000  Level FlightAware
07:26PM -22.9060 -49.0380 288° West 418 481 34,000  Level FlightAware
07:27PM -22.8770 -49.1350 288° West 403 464 34,000  Level FlightAware
07:28PM -22.8480 -49.2320 288° West 397 457 34,000  Level FlightAware
07:29PM -22.8180 -49.3330 288° West 404 465 34,000  Level FlightAware
07:30PM -22.7900 -49.4260 288° West 409 471 34,000 480 Level FlightAware
07:31PM -22.7590 -49.5280 288° West 416 479 34,800 944 Climbing FlightAware
07:32PM -22.7250 -49.6400 288° West 420 483 35,700 1,020 Climbing FlightAware
07:32PM -22.6990 -49.7260 288° West 424 488 36,500 1,121 Climbing FlightAware
07:33PM -22.6690 -49.8250 288° West 423 487 37,400 849 Climbing FlightAware
07:34PM -22.6330 -49.9450 288° West 419 482 38,000 313 Climbing FlightAware
07:35PM -22.5990 -50.0540 289° West 421 484 38,000  Level FlightAware
07:35PM -22.5800 -50.1180 288° West 421 484 38,000  Level FlightAware
07:36PM -22.5440 -50.2340 289° West 422 486 38,000  Level FlightAware
07:37PM -22.5170 -50.3210 289° West 423 487 38,000  Level FlightAware
07:38PM -22.4890 -50.4130 288° West 422 486 38,000  Level FlightAware
07:39PM -22.4540 -50.5250 289° West 420 483 38,000  Level FlightAware
07:40PM -22.4240 -50.6210 289° West 420 483 38,000  Level FlightAware
07:40PM -22.4070 -50.6770 288° West 420 483 38,000  Level FlightAware
07:41PM -22.3690 -50.7990 289° West 421 484 38,000  Level FlightAware
07:42PM -22.3540 -50.8490 288° West 423 487 38,000  Level FlightAware
07:43PM -22.3170 -50.9650 289° West 423 487 38,000  Level FlightAware
07:43PM -22.2870 -51.0610 289° West 423 487 38,000  Level FlightAware
07:44PM -22.2570 -51.1580 288° West 424 488 38,000  Level FlightAware
07:45PM -22.2220 -51.2700 289° West 422 486 38,000  Level FlightAware
07:46PM -22.1920 -51.3660 289° West 423 487 38,000  Level FlightAware
07:47PM -22.1460 -51.4790 294° West 430 495 38,000  Level FlightAware
07:48PM -22.1020 -51.5620 300° West 430 495 38,000  Level FlightAware
07:48PM -22.0640 -51.6380 298° West 430 495 38,000  Level FlightAware
07:49PM -22.0210 -51.7200 299° West 429 494 38,000  Level FlightAware
07:50PM -21.9840 -51.7930 299° West 429 494 38,000  Level FlightAware
07:51PM -21.9300 -51.8980 299° West 429 494 38,000  Level FlightAware
07:51PM -21.8910 -51.9720 300° West 429 494 38,000  Level FlightAware
07:52PM -21.8320 -52.0870 299° West 430 495 38,000  Level FlightAware
07:53PM -21.7860 -52.1760 299° West 430 495 38,000  Level FlightAware
07:54PM -21.7440 -52.2570 299° West 432 497 38,000  Level FlightAware
07:55PM -21.6830 -52.3730 299° West 434 499 38,000  Level FlightAware
07:56PM -21.6360 -52.4630 299° West 433 498 38,000  Level FlightAware
07:56PM -21.5900 -52.5520 299° West 432 497 38,000  Level FlightAware
07:57PM -21.5450 -52.6410 299° West 428 493 38,000  Level FlightAware
07:58PM -21.5010 -52.7530 293° West 427 491 38,000  Level FlightAware
07:59PM -21.4650 -52.8430 293° West 426 490 38,000  Level FlightAware
08:00PM -21.4240 -52.9470 293° West 426 490 38,000 -540 Level FlightAware
08:01PM -21.3870 -53.0400 293° West 435 501 37,100 -2,464 Descending FlightAware
08:02PM -21.3350 -53.1700 293° West 453 521 33,400 -2,949 Descending FlightAware
08:03PM -21.2900 -53.2800 294° West 446 513 31,300 -2,270 Descending FlightAware
08:04PM -21.2460 -53.3900 293° West 432 497 29,200 -1,600 Descending FlightAware
08:04PM -21.2230 -53.4500 292° West 431 496 28,900 -1,915 Descending FlightAware
08:05PM -21.1760 -53.5680 293° West 440 506 26,200 -3,421 Descending FlightAware
08:06PM -21.1350 -53.6680 294° West 423 487 22,800 -3,180 Descending FlightAware
08:07PM -21.0930 -53.7710 294° West 406 467 20,900 -2,082 Descending FlightAware
08:07PM -21.0630 -53.8480 293° West 394 453 19,400 -2,400 Descending FlightAware
08:08PM -21.0420 -53.8970 295° West 395 455 18,100 -3,045 Descending FlightAware
08:09PM -21.0120 -53.9700 294° West 399 459 16,000 -2,657 Descending FlightAware
08:09PM -20.9910 -54.0220 293° West 387 445 15,000 -1,215 Descending FlightAware
08:10PM -20.9580 -54.1050 293° West 341 392 14,400 -1,071 Descending FlightAware
08:10PM -20.9360 -54.1570 294° West 330 380 13,500 -1,615 Descending FlightAware
08:11PM -20.9100 -54.2210 293° West 325 374 12,300 -1,688 Descending FlightAware
08:12PM -20.8790 -54.2970 294° West 313 360 10,800 -1,326 Descending FlightAware
08:13PM -20.8550 -54.3560 294° West 294 338 10,200 -750 Descending FlightAware
08:13PM -20.8430 -54.3840 295° West 288 331 10,000 -1,132 Descending FlightAware
08:14PM -20.8260 -54.4260 293° West 283 326 9,200 -1,448 Descending FlightAware
08:14PM -20.8130 -54.4590 293° West 279 321 8,600 -1,440 Descending FlightAware
08:15PM -20.8000 -54.4880 296° West 276 318 8,000 -1,375 Descending FlightAware
08:15PM -20.7880 -54.5180 293° West 275 316 7,500 -1,154 Descending FlightAware
08:15PM -20.7730 -54.5540 294° West 279 321 7,000 -906 Descending FlightAware
08:16PM -20.7610 -54.5830 294° West 268 308 6,700 -778 Descending FlightAware
08:16PM -20.7460 -54.6190 294° West 254 292 6,300 -1,132 Descending FlightAware
08:17PM -20.7350 -54.6460 294° West 256 295 5,700 -1,174 Descending FlightAware
08:17PM -20.7250 -54.6710 293° West 248 285 5,400 -783 Descending FlightAware
08:17PM -20.7140 -54.6980 294° West 234 269 5,100 -462 Descending FlightAware
08:18PM -20.7020 -54.7260 295° West 215 247 5,000 -125 Descending FlightAware
08:18PM -20.6940 -54.7450 294° West 213 245 5,000 -273 Level FlightAware
08:19PM -20.6760 -54.7600 322° Northwest 208 239 4,800 -600 Descending FlightAware
08:19PM -20.6630 -54.7670 333° Northwest 204 235 4,600 -667 Descending FlightAware
08:19PM -20.6390 -54.7810 331° Northwest 203 234 4,300 -577 Descending FlightAware
08:20PM -20.6190 -54.7920 333° Northwest 204 235 4,100 -474 Descending FlightAware
08:20PM -20.6080 -54.7960 341° North 194 223 4,000 -310 Descending FlightAware
08:21PM -20.5760 -54.7770 29° Northeast 169 194 3,800 -179 Descending FlightAware
08:21PM -20.5640 -54.7640 45° Northeast 150 173 3,800 -321 Level FlightAware
08:22PM -20.5470 -54.7480 41° Northeast 139 160 3,500 -600 Descending FlightAware
08:22PM -20.5390 -54.7410 39° Northeast 133 153 3,300 -585 Descending FlightAware
08:22PM -20.5290 -54.7310 43° Northeast 131 151 3,100 -625 Descending FlightAware
08:23PM -20.5170 -54.7200 41° Northeast 130 150 2,800 -735 Descending FlightAware
08:23PM -20.5070 -54.7090 46° Northeast 129 148 2,500 -692 Descending FlightAware
08:24PM -20.4940 -54.6970 41° Northeast 128 147 2,200 -577 Descending FlightAware
08:24PM -20.4840 -54.6880 40° Northeast 125 144 2,000 -500 Descending FlightAware
08:24PM -20.4720 -54.6760 43° Northeast 105 121 -4,444 Descending FlightAware